Regional Weather Roundup
Issued by NWS

Home | Current Version | Previous Version | Text Only | Print | Product List | Glossary On
Versions: 1 2 3 4 5 6 7 8 9 10 11 12 13 14 15 16 17 18 19 20 21 22 23 24 25 26 27 28 29 30 31 32 33 34 35 36 37 38 39 40 41 42 43 44 45 46 47 48 49 50
000
ASUS43 KOAX 031510
RWRNE

WEATHER ROUNDUP FOR NEBRASKA
NATIONAL WEATHER SERVICE OMAHA NE
1000 AM CDT WED JUN 03 2015

NOTES: SATELLITE DATA IS BEING USED TO AUGMENT CLOUD COVER ABOVE
       12000 FEET.
       "FAIR" INDICATES FEW OR NO CLOUDS BELOW 12,000 FEET WITH NO
       SIGNIFICANT WEATHER AND/OR OBSTRUCTIONS TO VISIBILITY.

  * THESE STATIONS DO NOT REPORT WEATHER SUCH AS RAIN...SNOW OR FOG.

NEZ001>004-019>022-054>056-031600-
NEBRASKA PANHANDLE

CITY           SKY/WX    TMP DP  RH WIND       PRES   REMARKS
SCOTTSBLUFF    SUNNY     64  53  67 NW6       30.03S
ALLIANCE       SUNNY     64  54  69 N9        30.01R
CHADRON        SUNNY     65  54  67 NW3       30.01F
KIMBALL          N/A    N/A N/A N/A MISG        N/A
SIDNEY           N/A    N/A N/A N/A MISG      30.04R
$$

NEZ057>060-069>072-079>082-031600-
SOUTHWEST NEBRASKA

CITY           SKY/WX    TMP DP  RH WIND       PRES   REMARKS
NORTH PLATTE   PTSUNNY   66  58  75 SW7       29.93F
IMPERIAL       SUNNY     67  56  67 N7        29.97R
LEXINGTON      PTSUNNY   66  59  78 CALM      29.92F
MCCOOK         MOSUNNY   75  55  49 E14       29.89R
OGALLALA       MOSUNNY   65  57  75 CALM      29.97R
$$

NEZ005>010-023>029-035>040-094-031600-
NORTH CENTRAL NEBRASKA

CITY           SKY/WX    TMP DP  RH WIND       PRES   REMARKS
VALENTINE      SUNNY     67  54  63 N17       29.95S
AINSWORTH      SUNNY     68  56  65 N16G23    29.92F
BROKEN BOW     MOSUNNY   68  59  73 W10       29.91R
O`NEILL        MOSUNNY   70  63  77 NW14      29.88S
ORD            MOSUNNY   73  60  63 N8        29.87R
THEDFORD       SUNNY     67  55  65 N14G21    29.96R
$$

NEZ041-046>049-061>064-073>077-083>087-031600-
SOUTH CENTRAL NEBRASKA

CITY           SKY/WX    TMP DP  RH WIND       PRES   REMARKS
GRAND ISLAND   CLOUDY    66  60  81 SW5       29.87R
AURORA         CLOUDY    65  64  94 S10       29.82F
HASTINGS       PTSUNNY   64  60  87 S16       29.83F
HEBRON         CLOUDY    64  62  91 SE16      29.87F
HOLDREGE       MOSUNNY   69  56  63 SE15      29.87R
KEARNEY *      PTSUNNY   66  57  72 W9        29.92R
YORK           CLOUDY    64  63  94 S13       29.81R
$$

NEZ011>018-030>034-042>045-031600-
NORTHEAST NEBRASKA

CITY           SKY/WX    TMP DP  RH WIND       PRES   REMARKS
NORFOLK        PTSUNNY   71  62  73 N8        29.83R
ALBION         CLOUDY    72  60  67 N9        29.85R
BLAIR          CLOUDY    65  62  89 SE8G18    29.79F
COLUMBUS *     CLOUDY    68  57  68 N5        29.85R
FREMONT        CLOUDY    66  62  87 NW13      29.84R
TEKAMAH        CLOUDY    67  62  84 CALM      29.82F
WAYNE          CLOUDY    70  64  81 NW8       29.84R
$$

NEZ050>053-065>068-078-088>093-031600-
SOUTHEAST NEBRASKA

CITY           SKY/WX    TMP DP  RH WIND       PRES   REMARKS
LINCOLN        LGT RAIN  65  61  87 S13G52    29.78F
OMAHA EPPLEY   CLOUDY    66  63  90 S10       29.77F
BEATRICE       CLOUDY    63  61  95 SE12G17   29.89R
FALLS CITY     RAIN      65  64  97 S9        29.98R FOG
NEBRASKA CITY  LGT RAIN  64  64  99 S17       29.89F
PLATTSMOUTH    LGT RAIN  64  61  92 SE18G25   29.81F
$$

NEZ044-045-051>053-067-031600-
OMAHA AREA

CITY           SKY/WX    TMP DP  RH WIND       PRES   REMARKS
OMAHA EPPLEY   CLOUDY    66  63  90 S10       29.77F
BLAIR          CLOUDY    65  62  89 SE8G18    29.79F
FREMONT        CLOUDY    66  62  87 NW13      29.84R
MILLARD        CLOUDY    65  63  91 SE15      29.79F
PLATTSMOUTH    LGT RAIN  64  61  92 SE18G25   29.81F
WAHOO          FAIR      65  62  90 S12       29.81F
$$



USA.gov is the U.S. government's official web portal to all federal, state and local government web resources and services.